Location: Spring Creek
(38.2870°N, 100.2160°W)
Time: 09:17:25
(UTC+00:00)

Lacrosse 5 - Pass Details

Date: 08 May 2021
Orbit: 715 x 724 km, 57.0° (Epoch: 15 June)

Event Time Altitude Azimuth Distance (km) Brightness Sun altitude
Exits shadow 09:57:29 15° 283° (WNW) 1,888 3.7 -17.4°
Maximum altitude 10:00:25 24° 327° (NNW) 1,475 3.5 -16.9°
Drops below altitude 10° 10:04:30 10° 21° (NNE) 2,206 5.3 -16.3°
Sets 10:07:20 0° 36° (NE) 3,131 6.7 -15.9°
